This is the latest recevied weather packets stored in our database for station/object LU4EGV-13. If no packets are shown the sender has not sent any weather packets the latest 10 day(s).
| Time | Temp. | Humidity | Pressure | Rain* | Wind** | Luminosity | Snow |
|---|---|---|---|---|---|---|---|
| 1777498320 | 19.44° C | 41% | 1009.9 hPa | 0 mm | - | - | - |
| 1777497713 | 20° C | 38% | 1009.7 hPa | 0 mm | - | - | - |
| 1777497108 | 20.56° C | 37% | 1009.7 hPa | 0 mm | - | - | - |
| 1777496501 | 20.56° C | 35% | 1009.4 hPa | 0 mm | - | - | - |
| 1777495895 | 21.67° C | 32% | 1009.5 hPa | 0.25 mm | - | - | - |
| 1777495288 | 22.22° C | 30% | 1009.2 hPa | 0.25 mm | - | - | - |
| 1777494682 | 22.22° C | 29% | 1009.3 hPa | 0.25 mm | - | - | - |
| 1777494082 | 22.78° C | 30% | 1009 hPa | 0.25 mm | - | - | - |
| 1777493470 | 22.78° C | 29% | 1009 hPa | 1.02 mm | - | - | - |
| 1777492864 | 22.78° C | 29% | 1008.9 hPa | 1.02 mm | - | - | - |
| 1777492259 | 22.78° C | 28% | 1008.7 hPa | 0.51 mm | - | - | - |
| 1777491652 | 22.78° C | 29% | 1008.6 hPa | 5.33 mm | - | - | - |
| 1777491045 | 22.78° C | 30% | 1008.5 hPa | 5.33 mm | - | - | - |
| 1777490439 | 22.78° C | 30% | 1008.2 hPa | 6.35 mm | - | - | - |
| 1777489833 | 22.78° C | 30% | 1008.4 hPa | 6.6 mm | - | - | - |
| 1777489228 | 22.78° C | 30% | 1008.1 hPa | 6.6 mm | - | - | - |
| 1777488631 | 23.33° C | 32% | 1008.2 hPa | 6.6 mm | - | - | - |
| 1777488015 | 22.78° C | 33% | 1008 hPa | 1.78 mm | - | - | - |
| 1777487408 | 22.78° C | 32% | 1007.9 hPa | 3.56 mm | - | - | - |
| 1777486802 | 22.78° C | 33% | 1007.9 hPa | 3.05 mm | - | - | - |
| 1777486196 | 22.78° C | 36% | 1007.8 hPa | 3.3 mm | - | - | - |
| 1777485601 | 22.78° C | 40% | 1007.7 hPa | 3.3 mm | - | - | - |
| 1777484983 | 22.78° C | 41% | 1007.5 hPa | 3.3 mm | - | - | - |
| 1777484378 | 22.78° C | 40% | 1007.4 hPa | 3.3 mm | - | - | - |
| 1777483772 | 22.22° C | 41% | 1007.7 hPa | 1.52 mm | - | - | - |
* Rain latest hour (hover to see other rain measurements)
** Current wind speed in m/s (hover to see current wind gust speed)